Weather History for KLBF - October, 2011

Change the Weather History Date:

Wednesday, October 5, 2011

  Actual Average Record
Temperature  
Mean Temperature 71 °F 53 °F  
Max Temperature 82 °F 69 °F 96 °F (1947)
Min Temperature 60 °F 38 °F 22 °F (1964)
Degree Days  
Heating Degree Days 0 12  
Month to date heating degree days 9 55  
Since 1 July heating degree days 184 226  
Cooling Degree Days 6 0  
Month to date cooling degree days 11 0  
Year to date cooling degree days 915 765  
Growing Degree Days 21 (Base 50)    
Moisture  
Dew Point 41 °F    
Average Humidity 42    
Maximum Humidity 63    
Minimum Humidity 20    
Precipitation  
Precipitation 0.00 in 0.05 in 2.61 in (1911)
Month to date precipitation 0.00 0.28  
Year to date precipitation 21.10 17.91  
Snow  
Snow 0.00 in 0.10 in T in (2012)
Month to date snowfall 0.0 0.2  
Since 1 July snowfall 0.0 0.4  
Since 1 September snowfall 0.0 0.4  
Snow Depth 0.00 in    
Sea Level Pressure  
Sea Level Pressure 29.79 in    
Wind  
Wind Speed 19 mph (SSE)    
Max Wind Speed 35 mph    
Max Gust Speed 48 mph    
Visibility 10 miles    
Events      
T = Trace of Precipitation, MM = Missing Value Source: NWS Daily Summary

Daily Weather History Graph

Daily Weather History Graph

Search for Another Location

Airport or City:

Trip Planner

Search our weather history database for the weather conditions in past years. The results will help you decide how hot, cold, wet, or windy it might be!

Date:

Astronomy

Oct. 05, 2011 Rise Set
Actual Time 7:43 AM CDT 7:18 PM CDT
Civil Twilight 7:15 AM CDT 7:45 PM CDT
Nautical Twilight 6:43 AM CDT 8:17 PM CDT
Astronomical Twilight 6:11 AM CDT 8:49 PM CDT
Moon 4:02 PM CDT 1:28 AM CDT
Length of Visible Light 12h 30m
Length of Day
11h 35m
Waxing Gibbous, 66% of the Moon is Illuminated
Oct 5
Waxing Gibbous
Oct 11
Full
Oct 19
Last Quarter
Oct 26
New
Nov 2
First Quarter

Hourly Weather History & Observations

Time (CDT) Temp. Dew Point Humidity Pressure Visibility Wind Dir Wind Speed Gust Speed Precip Events Conditions
12:53 AM 68.0 °F 39.9 °F 36% 29.88 in 10.0 mi South 19.6 mph 26.5 mph N/A   Clear
1:53 AM 66.0 °F 39.9 °F 38% 29.87 in 10.0 mi South 16.1 mph 26.5 mph N/A   Clear
2:53 AM 64.9 °F 39.0 °F 39% 29.87 in 10.0 mi South 18.4 mph 27.6 mph N/A   Clear
3:53 AM 63.0 °F 37.9 °F 40% 29.86 in 10.0 mi SSE 17.3 mph 28.8 mph N/A   Clear
4:53 AM 62.1 °F 37.9 °F 41% 29.86 in 10.0 mi SSE 15.0 mph - N/A   Clear
5:53 AM 61.0 °F 37.9 °F 42% 29.85 in 10.0 mi SSE 11.5 mph - N/A   Clear
6:53 AM 60.8 °F 37.4 °F 42% 29.92 in 10.0 mi SSE 17.3 mph 28.8 mph N/A   Clear
7:53 AM 60.1 °F 37.0 °F 42% 29.87 in 10.0 mi SSE 10.4 mph - N/A   Clear
8:53 AM 62.1 °F 37.9 °F 41% 29.86 in 10.0 mi SSE 12.7 mph 20.7 mph N/A   Clear
9:53 AM 64.9 °F 39.0 °F 39% 29.85 in 10.0 mi South 15.0 mph 20.7 mph N/A   Clear
10:53 AM 72.0 °F 39.9 °F 31% 29.83 in 10.0 mi South 20.7 mph 33.4 mph N/A   Clear
11:53 AM 75.9 °F 41.0 °F 29% 29.80 in 10.0 mi South 20.7 mph 28.8 mph N/A   Clear
12:53 PM 80.1 °F 42.1 °F 26% 29.77 in 10.0 mi South 19.6 mph 34.5 mph N/A   Clear
1:53 PM 80.1 °F 39.9 °F 24% 29.75 in 10.0 mi South 29.9 mph 41.4 mph N/A   Clear
2:53 PM 80.1 °F 39.0 °F 23% 29.72 in 10.0 mi SSE 27.6 mph 42.6 mph N/A   Clear
3:53 PM 82.0 °F 37.0 °F 20% 29.70 in 10.0 mi South 26.5 mph 42.6 mph N/A   Partly Cloudy
4:53 PM 79.0 °F 39.9 °F 25% 29.69 in 10.0 mi SSE 24.2 mph 38.0 mph N/A   Clear
5:53 PM 78.8 °F 42.8 °F 28% 29.76 in 10.0 mi South 20.7 mph 35.7 mph N/A   Clear
6:53 PM 73.9 °F 48.0 °F 40% 29.70 in 10.0 mi SSE 15.0 mph 31.1 mph N/A   Clear
7:53 PM 72.0 °F 46.9 °F 41% 29.71 in 10.0 mi SSE 15.0 mph 34.5 mph N/A   Clear
8:53 PM 71.1 °F 48.0 °F 44% 29.72 in 10.0 mi SSE 23.0 mph 36.8 mph N/A   Clear
9:53 PM 68.0 °F 48.0 °F 49% 29.72 in 10.0 mi SE 19.6 mph 32.2 mph N/A   Clear
10:53 PM 66.0 °F 48.0 °F 52% 29.71 in 10.0 mi SSE 21.9 mph 28.8 mph N/A   Clear
11:53 PM 64.0 °F 51.1 °F 63% 29.73 in 10.0 mi South 21.9 mph 41.4 mph N/A   Clear